datetime,power release
1968-10-01,1351.16667
1968-10-02,2006.58333
1968-10-03,2263.70833
1968-10-04,2117.5
1968-10-05,352.916667
1968-10-06,352.916667
1968-10-07,1174.70833
1968-10-08,1174.70833
1968-10-09,1149.5
1968-10-10,1149.5
1968-10-11,1149.5
1968-10-12,1174.70833
1968-10-13,1159.58333
1968-10-14,1159.58333
1968-10-15,1184.79167
1968-10-16,1184.79167
1968-10-17,1199.91667
1968-10-18,1189.83333
1968-10-19,1174.70833
1968-10-20,1174.70833
1968-10-21,1769.625
1968-10-22,1900.70833
1968-10-23,1804.91667
1968-10-24,1517.54167
1968-10-25,1744.41667
1968-10-26,1053.70833
1968-10-27,932.708333
1968-10-28,1739.375
1968-10-29,1346.125
1968-10-30,1441.91667
1968-10-31,1583.08333
1968-11-01,1764.58333
1968-11-02,968.0
1968-11-03,1315.875
1968-11-04,1351.16667
1968-11-05,1144.45833
1968-11-06,1174.70833
1968-11-07,1149.5
1968-11-08,1618.375
1968-11-09,1199.91667
1968-11-10,1164.625
1968-11-11,1573.0
1968-11-12,2157.83333
1968-11-13,1598.20833
1968-11-14,1961.20833
1968-11-15,1724.25
1968-11-16,1719.20833
1968-11-17,1436.875
1968-11-18,1880.54167
1968-11-19,1653.66667
1968-11-20,1083.95833
1968-11-21,831.875
1968-11-22,821.791667
1968-11-23,836.916667
1968-11-24,836.916667
1968-11-25,1457.04167
1968-11-26,1704.08333
1968-11-27,1416.70833
1968-11-28,1840.20833
1968-11-29,1668.79167
1968-11-30,1840.20833
1968-12-01,1462.08333
1968-12-02,1855.33333
1968-12-03,1653.66667
1968-12-04,1830.125
1968-12-05,1573.0
1968-12-06,1799.875
1968-12-07,1673.83333
1968-12-08,1724.25
1968-12-09,1754.5
1968-12-10,1457.04167
1968-12-11,1482.25
1968-12-12,1694.0
1968-12-13,2021.70833
1968-12-14,2152.79167
1968-12-15,1149.5
1968-12-16,1149.5
1968-12-17,1159.58333
1968-12-18,1149.5
1968-12-19,1184.79167
1968-12-20,1215.04167
1968-12-21,1230.16667
1968-12-22,1215.04167
1968-12-23,1215.04167
1968-12-24,1225.125
1968-12-25,1220.08333
1968-12-26,1517.54167
1968-12-27,1804.91667
1968-12-28,1815.0
1968-12-29,1804.91667
1968-12-30,1764.58333
1968-12-31,1794.83333
1969-01-01,1567.95833
1969-01-02,1598.20833
1969-01-03,1734.33333
1969-01-04,1936.0
1969-01-05,1739.375
1969-01-06,1653.66667
1969-01-07,1522.58333
1969-01-08,1567.95833
1969-01-09,1507.45833
1969-01-10,1552.83333
1969-01-11,1441.91667
1969-01-12,1552.83333
1969-01-13,1578.04167
1969-01-14,1809.95833
1969-01-15,1356.20833
1969-01-16,1714.16667
1969-01-17,1441.91667
1969-01-18,1522.58333
1969-01-19,1421.75
1969-01-20,1683.91667
1969-01-21,1512.5
1969-01-22,1774.66667
1969-01-23,1623.41667
1969-01-24,1769.625
1969-01-25,1779.70833
1969-01-26,1749.45833
1969-01-27,1850.29167
1969-01-28,751.208333
1969-01-29,534.416667
1969-01-30,494.083333
1969-01-31,519.291667
1969-02-01,504.166667
1969-02-02,544.5
1969-02-03,519.291667
1969-02-04,494.083333
1969-02-05,514.25
1969-02-06,544.5
1969-02-07,544.5
1969-02-08,544.5
1969-02-09,544.5
1969-02-10,544.5
1969-02-11,504.166667
1969-02-12,494.083333
1969-02-13,610.041667
1969-02-14,912.541667
1969-02-15,1341.08333
1969-02-16,1341.08333
1969-02-17,1341.08333
1969-02-18,1341.08333
1969-02-19,1341.08333
1969-02-20,1341.08333
1969-02-21,1341.08333
1969-02-22,1356.20833
1969-02-23,438.625
1969-02-24,0.0
1969-02-25,0.0
1969-02-26,0.0
1969-02-27,0.0
1969-02-28,786.5
1969-03-01,1260.41667
1969-03-02,1295.70833
1969-03-03,1270.5
1969-03-04,1411.66667
1969-03-05,1522.58333
1969-03-06,1815.0
1969-03-07,1860.375
1969-03-08,1885.58333
1969-03-09,1880.54167
1969-03-10,1875.5
1969-03-11,1840.20833
1969-03-12,1815.0
1969-03-13,1613.33333
1969-03-14,1688.95833
1969-03-15,1593.16667
1969-03-16,1104.125
1969-03-17,1210.0
1969-03-18,1764.58333
1969-03-19,1477.20833
1969-03-20,1709.125
1969-03-21,1552.83333
1969-03-22,1532.66667
1969-03-23,1361.25
1969-03-24,1628.45833
1969-03-25,1542.75
1969-03-26,1648.625
1969-03-27,1144.45833
1969-03-28,1678.875
1969-03-29,1658.70833
1969-03-30,1623.41667
1969-03-31,1633.5
1969-04-01,1915.83333
1969-04-02,1522.58333
1969-04-03,1633.5
1969-04-04,1532.66667
1969-04-05,1351.16667
1969-04-06,1361.25
1969-04-07,1603.25
1969-04-08,1653.66667
1969-04-09,1633.5
1969-04-10,1709.125
1969-04-11,1598.20833
1969-04-12,1663.75
1969-04-13,1477.20833
1969-04-14,1678.875
1969-04-15,1613.33333
1969-04-16,1688.95833
1969-04-17,1759.54167
1969-04-18,1618.375
1969-04-19,1623.41667
1969-04-20,1694.0
1969-04-21,1875.5
1969-04-22,1603.25
1969-04-23,1719.20833
1969-04-24,1794.83333
1969-04-25,1668.79167
1969-04-26,1678.875
1969-04-27,902.458333
1969-04-28,1598.20833
1969-04-29,1532.66667
1969-04-30,1688.95833
1969-05-01,1804.91667
1969-05-02,1820.04167
1969-05-03,1633.5
1969-05-04,1588.125
1969-05-05,1825.08333
1969-05-06,1310.83333
1969-05-07,937.75
1969-05-08,1139.41667
1969-05-09,887.333333
1969-05-10,897.416667
1969-05-11,952.875
1969-05-12,993.208333
1969-05-13,1603.25
1969-05-14,1452.0
1969-05-15,690.708333
1969-05-16,993.208333
1969-05-17,741.125
1969-05-18,993.208333
1969-05-19,635.25
1969-05-20,610.041667
1969-05-21,867.166667
1969-05-22,1320.91667
1969-05-23,968.0
1969-05-24,1567.95833
1969-05-25,559.625
1969-05-26,1381.41667
1969-05-27,1260.41667
1969-05-28,1063.79167
1969-05-29,1194.875
1969-05-30,993.208333
1969-05-31,630.208333
1969-06-01,882.291667
1969-06-02,1245.29167
1969-06-03,1210.0
1969-06-04,1169.66667
1969-06-05,1018.41667
1969-06-06,973.041667
1969-06-07,509.208333
1969-06-08,549.541667
1969-06-09,1099.08333
1969-06-10,453.75
1969-06-11,927.666667
1969-06-12,1099.08333
1969-06-13,751.208333
1969-06-14,484.0
1969-06-15,574.75
1969-06-16,962.958333
1969-06-17,1613.33333
1969-06-18,1018.41667
1969-06-19,1260.41667
1969-06-20,847.0
1969-06-21,509.208333
1969-06-22,433.583333
1969-06-23,907.5
1969-06-24,675.583333
1969-06-25,1220.08333
1969-06-26,1668.79167
1969-06-27,1593.16667
1969-06-28,1361.25
1969-06-29,423.5
1969-06-30,1532.66667
1969-07-01,1149.5
1969-07-02,957.916667
1969-07-03,872.208333
1969-07-04,1119.25
1969-07-05,1119.25
1969-07-06,826.833333
1969-07-07,1134.375
1969-07-08,781.458333
1969-07-09,690.708333
1969-07-10,1063.79167
1969-07-11,978.083333
1969-07-12,907.5
1969-07-13,1013.375
1969-07-14,806.666667
1969-07-15,1114.20833
1969-07-16,1386.45833
1969-07-17,1124.29167
1969-07-18,816.75
1969-07-19,665.5
1969-07-20,685.666667
1969-07-21,1381.41667
1969-07-22,897.416667
1969-07-23,892.375
1969-07-24,605.0
1969-07-25,1018.41667
1969-07-26,514.25
1969-07-27,549.541667
1969-07-28,1260.41667
1969-07-29,1159.58333
1969-07-30,1194.875
1969-07-31,1688.95833
1969-08-01,2213.29167
1969-08-02,2309.08333
1969-08-03,2299.0
1969-08-04,2288.91667
1969-08-05,1598.20833
1969-08-06,1900.70833
1969-08-07,1230.16667
1969-08-08,1184.79167
1969-08-09,1295.70833
1969-08-10,1225.125
1969-08-11,947.833333
1969-08-12,917.583333
1969-08-13,897.416667
1969-08-14,897.416667
1969-08-15,902.458333
1969-08-16,902.458333
1969-08-17,569.708333
1969-08-18,968.0
1969-08-19,872.208333
1969-08-20,993.208333
1969-08-21,962.958333
1969-08-22,867.166667
1969-08-23,857.083333
1969-08-24,589.875
1969-08-25,852.041667
1969-08-26,942.791667
1969-08-27,826.833333
1969-08-28,831.875
1969-08-29,857.083333
1969-08-30,841.958333
1969-08-31,635.25
1969-09-01,847.0
1969-09-02,1063.79167
1969-09-03,710.875
1969-09-04,695.75
1969-09-05,685.666667
1969-09-06,448.708333
1969-09-07,337.791667
1969-09-08,1089.0
1969-09-09,675.583333
1969-09-10,1290.66667
1969-09-11,1487.29167
1969-09-12,1033.54167
1969-09-13,368.041667
1969-09-14,337.791667
1969-09-15,645.333333
1969-09-16,690.708333
1969-09-17,599.958333
1969-09-18,715.916667
1969-09-19,509.208333
1969-09-20,413.416667
1969-09-21,373.083333
1969-09-22,655.416667
1969-09-23,650.375
1969-09-24,847.0
1969-09-25,670.541667
1969-09-26,544.5
1969-09-27,660.458333
1969-09-28,423.5
1969-09-29,1174.70833
1969-09-30,862.125
1969-10-01,751.208333
1969-10-02,761.291667
1969-10-03,655.416667
1969-10-04,423.5
1969-10-05,539.458333
1969-10-06,746.166667
1969-10-07,1063.79167
1969-10-08,796.583333
1969-10-09,771.375
1969-10-10,801.625
1969-10-11,816.75
1969-10-12,831.875
1969-10-13,1557.875
1969-10-14,736.083333
1969-10-15,720.958333
1969-10-16,831.875
1969-10-17,423.5
1969-10-18,423.5
1969-10-19,398.291667
1969-10-20,660.458333
1969-10-21,393.25
1969-10-22,736.083333
1969-10-23,1280.58333
1969-10-24,1351.16667
1969-10-25,1351.16667
1969-10-26,1376.375
1969-10-27,968.0
1969-10-28,534.416667
1969-10-29,710.875
1969-10-30,962.958333
1969-10-31,413.416667
1969-11-01,423.5
1969-11-02,423.5
1969-11-03,816.75
1969-11-04,897.416667
1969-11-05,1199.91667
1969-11-06,1285.625
1969-11-07,1235.20833
1969-11-08,1089.0
1969-11-09,882.291667
1969-11-10,1215.04167
1969-11-11,1260.41667
1969-11-12,1502.41667
1969-11-13,1784.75
1969-11-14,1275.54167
1969-11-15,1154.54167
1969-11-16,1210.0
1969-11-17,1492.33333
1969-11-18,1578.04167
1969-11-19,1653.66667
1969-11-20,1714.16667
1969-11-21,1694.0
1969-11-22,2062.04167
1969-11-23,1860.375
1969-11-24,1487.29167
1969-11-25,1270.5
1969-11-26,1169.66667
1969-11-27,569.708333
1969-11-28,1124.29167
1969-11-29,1366.29167
1969-11-30,1310.83333
1969-12-01,257.125
1969-12-02,100.833333
1969-12-03,100.833333
1969-12-04,100.833333
1969-12-05,100.833333
1969-12-06,529.375
1969-12-07,1391.5
1969-12-08,1845.25
1969-12-09,1739.375
1969-12-10,1608.29167
1969-12-11,1411.66667
1969-12-12,1376.375
1969-12-13,942.791667
1969-12-14,726.0
1969-12-15,1704.08333
1969-12-16,1699.04167
1969-12-17,1189.83333
1969-12-18,1426.79167
1969-12-19,1215.04167
1969-12-20,1174.70833
1969-12-21,957.916667
1969-12-22,1265.45833
1969-12-23,1416.70833
1969-12-24,786.5
1969-12-25,539.458333
1969-12-26,1477.20833
1969-12-27,524.333333
1969-12-28,519.291667
1969-12-29,1789.79167
1969-12-30,1875.5
1969-12-31,1900.70833
1970-01-01,443.666667
1970-01-02,1376.375
1970-01-03,922.625
1970-01-04,635.25
1970-01-05,1159.58333
1970-01-06,1477.20833
1970-01-07,1603.25
1970-01-08,1436.875
1970-01-09,1255.375
1970-01-10,1023.45833
1970-01-11,1265.45833
1970-01-12,1104.125
1970-01-13,1053.70833
1970-01-14,1048.66667
1970-01-15,968.0
1970-01-16,993.208333
1970-01-17,1048.66667
1970-01-18,872.208333
1970-01-19,1522.58333
1970-01-20,2011.625
1970-01-21,1567.95833
1970-01-22,1179.75
1970-01-23,1653.66667
1970-01-24,1482.25
1970-01-25,1502.41667
1970-01-26,1729.29167
1970-01-27,1825.08333
1970-01-28,2006.58333
1970-01-29,2425.04167
1970-01-30,2420.0
1970-01-31,1870.45833
1970-02-01,1613.33333
1970-02-02,1194.875
1970-02-03,836.916667
1970-02-04,1068.83333
1970-02-05,1089.0
1970-02-06,1235.20833
1970-02-07,1003.29167
1970-02-08,791.541667
1970-02-09,1799.875
1970-02-10,1724.25
1970-02-11,2520.83333
1970-02-12,2561.16667
1970-02-13,2556.125
1970-02-14,2576.29167
1970-02-15,2450.25
1970-02-16,2480.5
1970-02-17,2677.125
1970-02-18,2480.5
1970-02-19,2621.66667
1970-02-20,2662.0
1970-02-21,2662.0
1970-02-22,2662.0
1970-02-23,2662.0
1970-02-24,2687.20833
1970-02-25,2702.33333
1970-02-26,2793.08333
1970-02-27,2888.875
1970-02-28,2888.875
1970-03-01,2888.875
1970-03-02,2888.875
1970-03-03,2888.875
1970-03-04,2868.70833
1970-03-05,2878.79167
1970-03-06,2878.79167
1970-03-07,2878.79167
1970-03-08,2878.79167
1970-03-09,2878.79167
1970-03-10,2878.79167
1970-03-11,2137.66667
1970-03-12,1694.0
1970-03-13,1749.45833
1970-03-14,1729.29167
1970-03-15,1562.91667
1970-03-16,2082.20833
1970-03-17,1794.83333
1970-03-18,2309.08333
1970-03-19,1310.83333
1970-03-20,1688.95833
1970-03-21,1562.91667
1970-03-22,897.416667
1970-03-23,1905.75
1970-03-24,1749.45833
1970-03-25,1678.875
1970-03-26,1472.16667
1970-03-27,1401.58333
1970-03-28,1144.45833
1970-03-29,897.416667
1970-03-30,2062.04167
1970-03-31,2157.83333
1970-04-01,2046.91667
1970-04-02,2162.875
1970-04-03,1804.91667
1970-04-04,1517.54167
1970-04-05,1048.66667
1970-04-06,2057.0
1970-04-07,1638.54167
1970-04-08,1749.45833
1970-04-09,1477.20833
1970-04-10,1704.08333
1970-04-11,1567.95833
1970-04-12,1567.95833
1970-04-13,1845.25
1970-04-14,1759.54167
1970-04-15,1255.375
1970-04-16,1053.70833
1970-04-17,1774.66667
1970-04-18,1527.625
1970-04-19,1124.29167
1970-04-20,1820.04167
1970-04-21,1749.45833
1970-04-22,1557.875
1970-04-23,1714.16667
1970-04-24,1714.16667
1970-04-25,1603.25
1970-04-26,1522.58333
1970-04-27,1376.375
1970-04-28,1769.625
1970-04-29,1522.58333
1970-04-30,1426.79167
1970-05-01,1421.75
1970-05-02,1411.66667
1970-05-03,1154.54167
1970-05-04,872.208333
1970-05-05,1164.625
1970-05-06,761.291667
1970-05-07,756.25
1970-05-08,756.25
1970-05-09,670.541667
1970-05-10,494.083333
1970-05-11,872.208333
1970-05-12,907.5
1970-05-13,615.083333
1970-05-14,1331.0
1970-05-15,1210.0
1970-05-16,1169.66667
1970-05-17,831.875
1970-05-18,801.625
1970-05-19,509.208333
1970-05-20,499.125
1970-05-21,458.791667
1970-05-22,484.0
1970-05-23,458.791667
1970-05-24,458.791667
1970-05-25,1784.75
1970-05-26,2147.75
1970-05-27,2178.0
1970-05-28,2334.29167
1970-05-29,2334.29167
1970-05-30,2420.0
1970-05-31,2420.0
1970-06-01,2455.29167
1970-06-02,2455.29167
1970-06-03,2414.95833
1970-06-04,1804.91667
1970-06-05,2566.20833
1970-06-06,2566.20833
1970-06-07,2566.20833
1970-06-08,2656.95833
1970-06-09,2662.0
1970-06-10,2954.41667
1970-06-11,3267.0
1970-06-12,3831.66667
1970-06-13,4678.66667
1970-06-14,4678.66667
1970-06-15,3332.54167
1970-06-16,2662.0
1970-06-17,2662.0
1970-06-18,2662.0
1970-06-19,2662.0
1970-06-20,4139.20833
1970-06-21,4880.33333
1970-06-22,3403.125
1970-06-23,3786.29167
1970-06-24,4577.83333
1970-06-25,4552.625
1970-06-26,5056.79167
1970-06-27,6090.33333
1970-06-28,6090.33333
1970-06-29,3806.45833
1970-06-30,2662.0
1970-07-01,2374.625
1970-07-02,2117.5
1970-07-03,2490.58333
1970-07-04,2667.04167
1970-07-05,2687.20833
1970-07-06,2838.45833
1970-07-07,2964.5
1970-07-08,3272.04167
1970-07-09,3670.33333
1970-07-10,3670.33333
1970-07-11,4582.875
1970-07-12,5041.66667
1970-07-13,2777.95833
1970-07-14,1562.91667
1970-07-15,1517.54167
1970-07-16,1562.91667
1970-07-17,1628.45833
1970-07-18,1487.29167
1970-07-19,1799.875
1970-07-20,1567.95833
1970-07-21,1774.66667
1970-07-22,1628.45833
1970-07-23,1865.41667
1970-07-24,1386.45833
1970-07-25,917.583333
1970-07-26,1053.70833
1970-07-27,1749.45833
1970-07-28,1764.58333
1970-07-29,1618.375
1970-07-30,1608.29167
1970-07-31,1567.95833
1970-08-01,1305.79167
1970-08-02,756.25
1970-08-03,1643.58333
1970-08-04,1431.83333
1970-08-05,1920.875
1970-08-06,1714.16667
1970-08-07,1724.25
1970-08-08,1507.45833
1970-08-09,781.458333
1970-08-10,1799.875
1970-08-11,2087.25
1970-08-12,1895.66667
1970-08-13,1971.29167
1970-08-14,2374.625
1970-08-15,2132.625
1970-08-16,1618.375
1970-08-17,2062.04167
1970-08-18,2374.625
1970-08-19,2253.625
1970-08-20,1789.79167
1970-08-21,2329.25
1970-08-22,2324.20833
1970-08-23,2263.70833
1970-08-24,1204.95833
1970-08-25,1280.58333
1970-08-26,1280.58333
1970-08-27,1280.58333
1970-08-28,1527.625
1970-08-29,1936.0
1970-08-30,1411.66667
1970-08-31,1431.83333
1970-09-01,1507.45833
1970-09-02,1880.54167
1970-09-03,1905.75
1970-09-04,1840.20833
1970-09-05,1275.54167
1970-09-06,902.458333
1970-09-07,1613.33333
1970-09-08,1789.79167
1970-09-09,1759.54167
1970-09-10,1789.79167
1970-09-11,1961.20833
1970-09-12,1890.625
1970-09-13,1552.83333
1970-09-14,1759.54167
1970-09-15,1905.75
1970-09-16,1734.33333
1970-09-17,1240.25
1970-09-18,1033.54167
1970-09-19,1053.70833
1970-09-20,1527.625
1970-09-21,1704.08333
1970-09-22,2001.54167
1970-09-23,1986.41667
1970-09-24,1809.95833
1970-09-25,1734.33333
1970-09-26,1562.91667
1970-09-27,690.708333
1970-09-28,1910.79167
1970-09-29,2112.45833
1970-09-30,1895.66667
1970-10-01,1794.83333
1970-10-02,1668.79167
1970-10-03,826.833333
1970-10-04,448.708333
1970-10-05,1578.04167
1970-10-06,1562.91667
1970-10-07,1472.16667
1970-10-08,1865.41667
1970-10-09,1956.16667
1970-10-10,776.416667
1970-10-11,534.416667
1970-10-12,1880.54167
1970-10-13,2067.08333
1970-10-14,1981.375
1970-10-15,2112.45833
1970-10-16,2263.70833
1970-10-17,1658.70833
1970-10-18,882.291667
1970-10-19,1744.41667
1970-10-20,1830.125
1970-10-21,1905.75
1970-10-22,1648.625
1970-10-23,1683.91667
1970-10-24,942.791667
1970-10-25,942.791667
1970-10-26,1759.54167
1970-10-27,1820.04167
1970-10-28,1719.20833
1970-10-29,1492.33333
1970-10-30,2016.66667
1970-10-31,1104.125
1970-11-01,1038.58333
1970-11-02,1820.04167
1970-11-03,1804.91667
1970-11-04,1774.66667
1970-11-05,2122.54167
1970-11-06,1920.875
1970-11-07,1764.58333
1970-11-08,973.041667
1970-11-09,1694.0
1970-11-10,1225.125
1970-11-11,1779.70833
1970-11-12,1668.79167
1970-11-13,1961.20833
1970-11-14,1421.75
1970-11-15,1331.0
1970-11-16,2127.58333
1970-11-17,1840.20833
1970-11-18,2016.66667
1970-11-19,1547.79167
1970-11-20,1699.04167
1970-11-21,1058.75
1970-11-22,1265.45833
1970-11-23,1729.29167
1970-11-24,1658.70833
1970-11-25,1714.16667
1970-11-26,731.041667
1970-11-27,1567.95833
1970-11-28,1905.75
1970-11-29,1083.95833
1970-11-30,1875.5
1970-12-01,1941.04167
1970-12-02,1683.91667
1970-12-03,1653.66667
1970-12-04,1865.41667
1970-12-05,1880.54167
1970-12-06,1789.79167
1970-12-07,1552.83333
1970-12-08,1078.91667
1970-12-09,1578.04167
1970-12-10,1709.125
1970-12-11,1668.79167
1970-12-12,1638.54167
1970-12-13,1804.91667
1970-12-14,1416.70833
1970-12-15,1204.95833
1970-12-16,1381.41667
1970-12-17,1688.95833
1970-12-18,2218.33333
1970-12-19,2172.95833
1970-12-20,1603.25
1970-12-21,2359.5
1970-12-22,2520.83333
1970-12-23,1920.875
1970-12-24,2087.25
1970-12-25,1966.25
1970-12-26,2339.33333
1970-12-27,2137.66667
1970-12-28,1895.66667
1970-12-29,1794.83333
1970-12-30,1996.5
1970-12-31,2112.45833
1971-01-01,1835.16667
1971-01-02,2576.29167
1971-01-03,2172.95833
1971-01-04,2238.5
1971-01-05,1870.45833
1971-01-06,2278.83333
1971-01-07,2409.91667
1971-01-08,2258.66667
1971-01-09,2107.41667
1971-01-10,1825.08333
1971-01-11,1930.95833
1971-01-12,2576.29167
1971-01-13,2520.83333
1971-01-14,2369.58333
1971-01-15,2556.125
1971-01-16,2021.70833
1971-01-17,1855.33333
1971-01-18,2162.875
1971-01-19,2525.875
1971-01-20,2147.75
1971-01-21,2304.04167
1971-01-22,1467.125
1971-01-23,2193.125
1971-01-24,2132.625
1971-01-25,2591.41667
1971-01-26,2727.54167
1971-01-27,2611.58333
1971-01-28,2460.33333
1971-01-29,2218.33333
1971-01-30,2853.58333
1971-01-31,2742.66667
1971-02-01,2868.70833
1971-02-02,2757.79167
1971-02-03,2863.66667
1971-02-04,2500.66667
1971-02-05,2888.875
1971-02-06,2883.83333
1971-02-07,2893.91667
1971-02-08,2893.91667
1971-02-09,2929.20833
1971-02-10,2924.16667
1971-02-11,2707.375
1971-02-12,2500.66667
1971-02-13,2949.375
1971-02-14,2934.25
1971-02-15,2914.08333
1971-02-16,2939.29167
1971-02-17,2939.29167
1971-02-18,2697.29167
1971-02-19,2793.08333
1971-02-20,2888.875
1971-02-21,2858.625
1971-02-22,2883.83333
1971-02-23,2767.875
1971-02-24,2888.875
1971-02-25,2490.58333
1971-02-26,1371.33333
1971-02-27,2878.79167
1971-02-28,2878.79167
1971-03-01,2878.79167
1971-03-02,2878.79167
1971-03-03,2974.58333
1971-03-04,3025.0
1971-03-05,3025.0
1971-03-06,3025.0
1971-03-07,3025.0
1971-03-08,2989.70833
1971-03-09,2914.08333
1971-03-10,2717.45833
1971-03-11,2823.33333
1971-03-12,2737.625
1971-03-13,2883.83333
1971-03-14,2883.83333
1971-03-15,2883.83333
1971-03-16,2883.83333
1971-03-17,2742.66667
1971-03-18,2818.29167
1971-03-19,2909.04167
1971-03-20,2929.20833
1971-03-21,2853.58333
1971-03-22,2828.375
1971-03-23,2843.5
1971-03-24,2848.54167
1971-03-25,2848.54167
1971-03-26,2848.54167
1971-03-27,2954.41667
1971-03-28,2636.79167
1971-03-29,2752.75
1971-03-30,2747.70833
1971-03-31,2440.16667
1971-04-01,2662.0
1971-04-02,2752.75
1971-04-03,2793.08333
1971-04-04,2793.08333
1971-04-05,2843.5
1971-04-06,2783.0
1971-04-07,2798.125
1971-04-08,2798.125
1971-04-09,2853.58333
1971-04-10,2853.58333
1971-04-11,2772.91667
1971-04-12,2001.54167
1971-04-13,2853.58333
1971-04-14,2772.91667
1971-04-15,2853.58333
1971-04-16,2853.58333
1971-04-17,2853.58333
1971-04-18,2853.58333
1971-04-19,2853.58333
1971-04-20,2853.58333
1971-04-21,2853.58333
1971-04-22,2853.58333
1971-04-23,2853.58333
1971-04-24,2853.58333
1971-04-25,2737.625
1971-04-26,2858.625
1971-04-27,2853.58333
1971-04-28,2863.66667
1971-04-29,2853.58333
1971-04-30,2087.25
1971-05-01,887.333333
1971-05-02,695.75
1971-05-03,973.041667
1971-05-04,594.916667
1971-05-05,791.541667
1971-05-06,1028.5
1971-05-07,1623.41667
1971-05-08,766.333333
1971-05-09,640.291667
1971-05-10,1068.83333
1971-05-11,952.875
1971-05-12,615.083333
1971-05-13,821.791667
1971-05-14,710.875
1971-05-15,695.75
1971-05-16,756.25
1971-05-17,821.791667
1971-05-18,675.583333
1971-05-19,564.666667
1971-05-20,741.125
1971-05-21,892.375
1971-05-22,806.666667
1971-05-23,857.083333
1971-05-24,917.583333
1971-05-25,771.375
1971-05-26,917.583333
1971-05-27,1341.08333
1971-05-28,1668.79167
1971-05-29,2087.25
1971-05-30,1078.91667
1971-05-31,761.291667
1971-06-01,892.375
1971-06-02,605.0
1971-06-03,1270.5
1971-06-04,655.416667
1971-06-05,549.541667
1971-06-06,443.666667
1971-06-07,660.458333
1971-06-08,796.583333
1971-06-09,902.458333
1971-06-10,610.041667
1971-06-11,852.041667
1971-06-12,821.791667
1971-06-13,720.958333
1971-06-14,1648.625
1971-06-15,781.458333
1971-06-16,705.833333
1971-06-17,670.541667
1971-06-18,806.666667
1971-06-19,786.5
1971-06-20,665.5
1971-06-21,821.791667
1971-06-22,983.125
1971-06-23,403.333333
1971-06-24,131.083333
1971-06-25,302.5
1971-06-26,302.5
1971-06-27,327.708333
1971-06-28,383.166667
1971-06-29,322.666667
1971-06-30,388.208333
1971-07-01,579.791667
1971-07-02,1048.66667
1971-07-03,1240.25
1971-07-04,1018.41667
1971-07-05,831.875
1971-07-06,1411.66667
1971-07-07,1063.79167
1971-07-08,1305.79167
1971-07-09,786.5
1971-07-10,1164.625
1971-07-11,1376.375
1971-07-12,857.083333
1971-07-13,867.166667
1971-07-14,1220.08333
1971-07-15,1210.0
1971-07-16,1416.70833
1971-07-17,1835.16667
1971-07-18,1875.5
1971-07-19,2006.58333
1971-07-20,2324.20833
1971-07-21,2556.125
1971-07-22,2651.91667
1971-07-23,2672.08333
1971-07-24,1920.875
1971-07-25,2248.58333
1971-07-26,1714.16667
1971-07-27,2611.58333
1971-07-28,2546.04167
1971-07-29,2495.625
1971-07-30,1840.20833
1971-07-31,1951.125
1971-08-01,2072.125
1971-08-02,2142.70833
1971-08-03,2394.79167
1971-08-04,2425.04167
1971-08-05,2384.70833
1971-08-06,2172.95833
1971-08-07,2662.0
1971-08-08,2147.75
1971-08-09,2450.25
1971-08-10,2702.33333
1971-08-11,2278.83333
1971-08-12,2228.41667
1971-08-13,2667.04167
1971-08-14,2016.66667
1971-08-15,1426.79167
1971-08-16,1799.875
1971-08-17,1840.20833
1971-08-18,1966.25
1971-08-19,2016.66667
1971-08-20,1164.625
1971-08-21,1220.08333
1971-08-22,1946.08333
1971-08-23,2137.66667
1971-08-24,1784.75
1971-08-25,1583.08333
1971-08-26,1830.125
1971-08-27,1936.0
1971-08-28,1734.33333
1971-08-29,1870.45833
1971-08-30,1971.29167
1971-08-31,1981.375
1971-09-01,1779.70833
1971-09-02,1628.45833
1971-09-03,1774.66667
1971-09-04,1658.70833
1971-09-05,1391.5
1971-09-06,1941.04167
1971-09-07,1704.08333
1971-09-08,1860.375
1971-09-09,1779.70833
1971-09-10,1603.25
1971-09-11,1749.45833
1971-09-12,1573.0
1971-09-13,2021.70833
1971-09-14,1870.45833
1971-09-15,1734.33333
1971-09-16,1880.54167
1971-09-17,1441.91667
1971-09-18,1436.875
1971-09-19,1436.875
1971-09-20,1719.20833
1971-09-21,1567.95833
1971-09-22,1643.58333
1971-09-23,1512.5
1971-09-24,1336.04167
1971-09-25,1300.75
1971-09-26,1467.125
1971-09-27,1734.33333
1971-09-28,1618.375
1971-09-29,1724.25
1971-09-30,504.166667
1971-10-01,836.916667
1971-10-02,1038.58333
1971-10-03,952.875
1971-10-04,1315.875
1971-10-05,1825.08333
1971-10-06,2172.95833
1971-10-07,1547.79167
1971-10-08,867.166667
1971-10-09,1124.29167
1971-10-10,615.083333
1971-10-11,1089.0
1971-10-12,1613.33333
1971-10-13,1457.04167
1971-10-14,1351.16667
1971-10-15,867.166667
1971-10-16,635.25
1971-10-17,443.666667
1971-10-18,1114.20833
1971-10-19,988.166667
1971-10-20,660.458333
1971-10-21,1194.875
1971-10-22,1462.08333
1971-10-23,1154.54167
1971-10-24,453.75
1971-10-25,605.0
1971-10-26,872.208333
1971-10-27,1230.16667
1971-10-28,1260.41667
1971-10-29,1194.875
1971-10-30,1210.0
1971-10-31,685.666667
1971-11-01,1073.875
1971-11-02,1154.54167
1971-11-03,1462.08333
1971-11-04,1376.375
1971-11-05,1426.79167
1971-11-06,1583.08333
1971-11-07,1462.08333
1971-11-08,1462.08333
1971-11-09,1462.08333
1971-11-10,1104.125
1971-11-11,1426.79167
1971-11-12,1426.79167
1971-11-13,1351.16667
1971-11-14,1426.79167
1971-11-15,1199.91667
1971-11-16,1215.04167